Location: Eyeline Observatory
(43.2182°N, 78.8632°W)
Time: 08:03:49
(UTC-04:00)

N. Korean satellite - Pass Details

Date: 08 October 2017
Orbit: 459 x 517 km, 97.2° (Epoch: 22 October)

Event Time Altitude Azimuth Distance (km) Brightness Sun altitude
Rises 20:10:08 0° 201° (SSW) 2,575 10.4 -16.5°
Reaches altitude 10° 20:12:42 10° 221° (SW) 1,686 9.7 -17.0°
Maximum altitude 20:15:17 18° 266° (W) 1,244 9.6 -17.5°
Drops below altitude 10° 20:17:52 10° 312° (NW) 1,673 10.1 -17.9°
Sets 20:20:24 0° 332° (NNW) 2,546 10.8 -18.4°
